,,,PA_Meas_PMT16A,,PR_Meas_QMR101_102,,RH_Meas_QMH101,,SR_Meas_QMS101,,TA_Meas_QMH101,,GenWind,,GenWind,
date,time,status,PA,status,PR,status,RH,status,SR,status,TA,status,DirAvg,status,SpdAvg,
2011-08-11, 00:00:04,VALID,1009.907,VALID,0.0,VALID,104.0,VALID,0.0,VALID,24.415,VALID,342.0,VALID,0.263,
2011-08-11, 00:01:04,VALID,1009.91,VALID,0.0,VALID,104.0,VALID,0.0,VALID,24.415,VALID,342.0,VALID,0.274,
2011-08-11, 00:02:04,VALID,1009.864,VALID,0.0,VALID,104.0,VALID,0.0,VALID,24.435,VALID,342.0,VALID,0.008,
2011-08-11, 00:03:04,VALID,1009.844,VALID,0.0,VALID,104.0,VALID,0.0,VALID,24.435,VALID,342.0,VALID,0.0,
2011-08-11, 00:04:04,VALID,1009.824,VALID,0.0,VALID,104.0,VALID,0.0,VALID,24.435,VALID,342.0,VALID,0.004,
2011-08-11, 00:05:04,VALID,1009.802,VALID,0.0,VALID,104.0,VALID,0.0,VALID,24.454,VALID,342.0,VALID,0.316,
2011-08-11, 00:06:04,VALID,1009.823,VALID,0.0,VALID,104.0,VALID,0.0,VALID,24.454,VALID,342.0,VALID,0.243,
2011-08-11, 00:07:04,VALID,1009.821,VALID,0.0,VALID,104.0,VALID,0.0,VALID,24.474,VALID,342.0,VALID,0.231,
2011-08-11, 00:08:04,VALID,1009.828,VALID,0.0,VALID,104.0,VALID,0.0,VALID,24.474,VALID,342.0,VALID,0.273,
2011-08-11, 00:09:04,VALID,1009.823,VALID,0.0,VALID,104.0,VALID,0.0,VALID,24.474,VALID,342.0,VALID,0.127,
2011-08-11, 00:10:04,VALID,1009.83,VALID,0.0,VALID,104.0,VALID,0.0,VALID,24.493,VALID,342.0,VALID,0.0,
2011-08-11, 00:11:04,VALID,1009.801,VALID,0.0,VALID,104.0,VALID,0.0,VALID,24.493,VALID,342.0,VALID,0.0,
2011-08-11, 00:12:04,VALID,1009.762,VALID,0.0,VALID,104.0,VALID,0.0,VALID,24.491,VALID,342.0,VALID,0.129,
2011-08-11, 00:13:04,VALID,1009.785,VALID,0.0,VALID,104.0,VALID,0.0,VALID,24.493,VALID,342.0,VALID,0.279,
2011-08-11, 00:14:04,VALID,1009.752,VALID,0.0,VALID,104.0,VALID,0.106,VALID,24.472,VALID,342.0,VALID,0.594,
2011-08-11, 00:15:04,VALID,1009.725,VALID,0.0,VALID,104.0,VALID,0.0,VALID,24.512,VALID,341.0,VALID,0.589,
2011-08-11, 00:16:04,VALID,1009.704,VALID,0.0,VALID,104.0,VALID,0.106,VALID,24.532,VALID,336.0,VALID,0.636,
2011-08-11, 00:17:04,VALID,1009.656,VALID,0.0,VALID,104.0,VALID,0.106,VALID,24.551,VALID,311.0,VALID,0.596,
2011-08-11, 00:18:04,VALID,1009.661,VALID,0.0,VALID,104.0,VALID,0.0,VALID,24.571,VALID,316.0,VALID,0.603,
2011-08-11, 00:19:04,VALID,1009.616,VALID,0.0,VALID,104.0,VALID,0.0,VALID,24.571,VALID,324.0,VALID,0.653,
2011-08-11, 00:20:04,VALID,1009.594,VALID,0.0,VALID,104.0,VALID,0.0,VALID,24.59,VALID,324.0,VALID,0.536,
2011-08-11, 00:21:04,VALID,1009.59,VALID,0.0,VALID,104.0,VALID,0.0,VALID,24.59,VALID,324.0,VALID,0.544,
2011-08-11, 00:22:04,VALID,1009.561,VALID,0.0,VALID,104.0,VALID,0.0,VALID,24.61,VALID,324.0,VALID,0.389,
2011-08-11, 00:23:04,VALID,1009.576,VALID,0.0,VALID,104.0,VALID,0.0,VALID,24.59,VALID,324.0,VALID,0.418,
2011-08-11, 00:24:04,VALID,1009.56,VALID,0.0,VALID,104.0,VALID,0.0,VALID,24.61,VALID,324.0,VALID,0.229,
2011-08-11, 00:25:04,VALID,1009.549,VALID,0.0,VALID,104.0,VALID,0.0,VALID,24.59,VALID,324.0,VALID,0.0,
2011-08-11, 00:26:04,VALID,1009.508,VALID,0.0,VALID,104.0,VALID,0.0,VALID,24.59,VALID,324.0,VALID,0.121,
2011-08-11, 00:27:04,VALID,1009.508,VALID,0.0,VALID,104.0,VALID,0.0,VALID,24.59,VALID,324.0,VALID,0.082,
2011-08-11, 00:28:04,VALID,1009.51,VALID,0.0,VALID,104.0,VALID,0.0,VALID,24.612,VALID,324.0,VALID,0.113,
2011-08-11, 00:29:04,VALID,1009.512,VALID,0.0,VALID,104.0,VALID,0.0,VALID,24.59,VALID,324.0,VALID,0.25,
2011-08-11, 00:30:04,VALID,1009.539,VALID,0.0,VALID,104.0,VALID,0.0,VALID,24.59,VALID,355.0,VALID,0.352,
2011-08-11, 00:31:04,VALID,1009.574,VALID,0.0,VALID,104.0,VALID,0.0,VALID,24.61,VALID,355.0,VALID,0.03,
2011-08-11, 00:32:04,VALID,1009.586,VALID,0.0,VALID,104.0,VALID,0.0,VALID,24.61,VALID,355.0,VALID,0.418,
2011-08-11, 00:33:04,VALID,1009.627,VALID,0.0,VALID,104.0,VALID,0.0,VALID,24.629,VALID,355.0,VALID,0.193,
2011-08-11, 00:34:04,VALID,1009.651,VALID,0.0,VALID,104.0,VALID,0.0,VALID,24.629,VALID,355.0,VALID,0.482,
2011-08-11, 00:35:04,VALID,1009.662,VALID,0.0,VALID,104.0,VALID,0.0,VALID,24.629,VALID,357.0,VALID,0.429,
2011-08-11, 00:36:04,VALID,1009.654,VALID,0.0,VALID,104.0,VALID,0.0,VALID,24.649,VALID,357.0,VALID,0.002,
2011-08-11, 00:37:04,VALID,1009.687,VALID,0.0,VALID,104.0,VALID,0.0,VALID,24.668,VALID,357.0,VALID,0.232,
2011-08-11, 00:38:04,VALID,1009.69,VALID,0.0,VALID,104.0,VALID,0.0,VALID,24.668,VALID,357.0,VALID,0.061,
2011-08-11, 00:39:04,VALID,1009.692,VALID,0.0,VALID,104.0,VALID,0.0,VALID,24.667,VALID,357.0,VALID,0.001,
2011-08-11, 00:40:04,VALID,1009.694,VALID,0.0,VALID,104.0,VALID,0.0,VALID,24.707,VALID,357.0,VALID,0.127,
2011-08-11, 00:41:04,VALID,1009.678,VALID,0.0,VALID,104.0,VALID,0.0,VALID,24.707,VALID,357.0,VALID,0.342,
2011-08-11, 00:42:04,VALID,1009.704,VALID,0.0,VALID,104.0,VALID,0.0,VALID,24.688,VALID,357.0,VALID,0.368,
2011-08-11, 00:43:04,VALID,1009.697,VALID,0.0,VALID,104.0,VALID,0.0,VALID,24.688,VALID,357.0,VALID,0.503,
2011-08-11, 00:44:04,VALID,1009.701,VALID,0.0,VALID,104.0,VALID,0.0,VALID,24.688,VALID,358.0,VALID,0.447,
2011-08-11, 00:45:04,VALID,1009.702,VALID,0.0,VALID,104.0,VALID,0.0,VALID,24.707,VALID,358.0,VALID,0.294,
2011-08-11, 00:46:04,VALID,1009.673,VALID,0.0,VALID,104.0,VALID,0.0,VALID,24.706,VALID,358.0,VALID,0.407,
2011-08-11, 00:47:04,VALID,1009.65,VALID,0.0,VALID,104.0,VALID,0.0,VALID,24.706,VALID,358.0,VALID,0.35,
2011-08-11, 00:48:04,VALID,1009.683,VALID,0.0,VALID,104.0,VALID,0.0,VALID,24.746,VALID,9.0,VALID,0.422,
2011-08-11, 00:49:04,VALID,1009.698,VALID,0.0,VALID,104.0,VALID,0.0,VALID,24.727,VALID,26.0,VALID,0.594,
2011-08-11, 00:50:04,VALID,1009.719,VALID,0.0,VALID,104.0,VALID,0.0,VALID,24.745,VALID,29.0,VALID,0.445,
2011-08-11, 00:51:04,VALID,1009.724,VALID,0.0,VALID,104.0,VALID,0.0,VALID,24.746,VALID,67.0,VALID,0.625,
2011-08-11, 00:52:04,VALID,1009.717,VALID,0.0,VALID,104.0,VALID,0.0,VALID,24.727,VALID,72.0,VALID,0.13,
2011-08-11, 00:53:04,VALID,1009.681,VALID,0.0,VALID,104.0,VALID,0.0,VALID,24.746,VALID,72.0,VALID,0.225,
2011-08-11, 00:54:04,VALID,1009.659,VALID,0.0,VALID,104.0,VALID,0.0,VALID,24.746,VALID,72.0,VALID,0.148,
2011-08-11, 00:55:04,VALID,1009.629,VALID,0.0,VALID,104.0,VALID,0.0,VALID,24.746,VALID,24.0,VALID,0.412,
2011-08-11, 00:56:04,VALID,1009.593,VALID,0.0,VALID,104.0,VALID,0.0,VALID,24.746,VALID,24.0,VALID,0.359,
2011-08-11, 00:57:04,VALID,1009.574,VALID,0.0,VALID,104.0,VALID,0.0,VALID,24.766,VALID,21.0,VALID,0.248,
2011-08-11, 00:58:04,VALID,1009.546,VALID,0.0,VALID,104.0,VALID,0.0,VALID,24.746,VALID,21.0,VALID,0.065,
2011-08-11, 00:59:04,VALID,1009.519,VALID,0.0,VALID,104.0,VALID,0.0,VALID,24.746,VALID,21.0,VALID,0.133,
2011-08-11, 01:00:04,VALID,1009.496,VALID,0.0,VALID,104.0,VALID,0.0,VALID,24.727,VALID,21.0,VALID,0.062,
2011-08-11, 01:01:04,VALID,1009.5,VALID,0.0,VALID,104.0,VALID,0.0,VALID,24.727,VALID,21.0,VALID,0.33,
2011-08-11, 01:02:04,VALID,1009.498,VALID,0.0,VALID,104.0,VALID,0.0,VALID,24.706,VALID,21.0,VALID,0.02,
2011-08-11, 01:03:05,VALID,1009.439,VALID,0.0,VALID,104.0,VALID,0.0,VALID,24.727,VALID,355.0,VALID,0.632,
2011-08-11, 01:04:05,VALID,1009.401,VALID,0.0,VALID,104.0,VALID,0.0,VALID,24.746,VALID,292.0,VALID,0.671,
2011-08-11, 01:05:05,VALID,1009.375,VALID,0.0,VALID,104.0,VALID,0.0,VALID,24.766,VALID,285.0,VALID,0.908,
2011-08-11, 01:06:05,VALID,1009.329,VALID,0.0,VALID,104.0,VALID,0.0,VALID,24.807,VALID,291.0,VALID,1.17,
2011-08-11, 01:07:05,VALID,1009.324,VALID,0.0,VALID,104.0,VALID,0.0,VALID,24.824,VALID,288.0,VALID,1.217,
2011-08-11, 01:08:05,VALID,1009.341,VALID,0.0,VALID,104.0,VALID,0.0,VALID,24.844,VALID,300.0,VALID,0.21,
2011-08-11, 01:09:05,VALID,1009.35,VALID,0.0,VALID,104.0,VALID,0.0,VALID,24.863,VALID,299.0,VALID,0.785,
2011-08-11, 01:10:05,VALID,1009.382,VALID,0.0,VALID,104.0,VALID,0.0,VALID,24.902,VALID,300.0,VALID,0.296,
2011-08-11, 01:11:05,VALID,1009.385,VALID,0.0,VALID,104.0,VALID,0.0,VALID,24.941,VALID,315.0,VALID,0.516,
2011-08-11, 01:12:05,VALID,1009.406,VALID,0.0,VALID,104.0,VALID,0.0,VALID,24.963,VALID,315.0,VALID,0.216,
2011-08-11, 01:13:05,VALID,1009.405,VALID,0.0,VALID,104.0,VALID,0.0,VALID,24.961,VALID,315.0,VALID,0.374,
2011-08-11, 01:14:05,VALID,1009.407,VALID,0.0,VALID,104.0,VALID,0.0,VALID,24.982,VALID,315.0,VALID,0.359,
2011-08-11, 01:15:05,VALID,1009.399,VALID,0.0,VALID,104.0,VALID,0.0,VALID,24.961,VALID,329.0,VALID,0.292,
2011-08-11, 01:16:05,VALID,1009.377,VALID,0.0,VALID,104.0,VALID,0.0,VALID,24.961,VALID,336.0,VALID,0.446,
2011-08-11, 01:17:05,VALID,1009.353,VALID,0.0,VALID,104.0,VALID,0.0,VALID,24.961,VALID,336.0,VALID,0.465,
2011-08-11, 01:18:05,VALID,1009.36,VALID,0.0,VALID,104.0,VALID,0.0,VALID,24.961,VALID,336.0,VALID,0.485,
2011-08-11, 01:19:05,VALID,1009.349,VALID,0.0,VALID,104.0,VALID,0.0,VALID,24.982,VALID,30.0,VALID,0.505,
2011-08-11, 01:20:05,VALID,1009.327,VALID,0.0,VALID,104.0,VALID,0.0,VALID,24.961,VALID,53.0,VALID,0.721,
2011-08-11, 01:21:05,VALID,1009.325,VALID,0.0,VALID,104.0,VALID,0.0,VALID,24.98,VALID,56.0,VALID,0.839,
2011-08-11, 01:22:05,VALID,1009.316,VALID,0.0,VALID,104.0,VALID,0.0,VALID,24.98,VALID,46.0,VALID,0.607,
2011-08-11, 01:23:05,VALID,1009.322,VALID,0.0,VALID,104.0,VALID,0.0,VALID,24.961,VALID,44.0,VALID,0.745,
2011-08-11, 01:24:05,VALID,1009.261,VALID,0.0,VALID,104.0,VALID,0.0,VALID,24.961,VALID,45.0,VALID,0.313,
2011-08-11, 01:25:05,VALID,1009.278,VALID,0.0,VALID,104.0,VALID,0.0,VALID,24.961,VALID,45.0,VALID,0.385,
2011-08-11, 01:26:05,VALID,1009.238,VALID,0.0,VALID,104.0,VALID,0.0,VALID,24.961,VALID,45.0,VALID,0.224,
2011-08-11, 01:27:05,VALID,1009.251,VALID,0.0,VALID,104.0,VALID,0.0,VALID,24.961,VALID,46.0,VALID,0.532,
2011-08-11, 01:28:05,VALID,1009.263,VALID,0.0,VALID,104.0,VALID,0.0,VALID,24.98,VALID,52.0,VALID,0.64,
2011-08-11, 01:29:05,VALID,1009.25,VALID,0.0,VALID,104.0,VALID,0.0,VALID,25.019,VALID,52.0,VALID,0.591,
2011-08-11, 01:30:05,VALID,1009.243,VALID,0.0,VALID,104.0,VALID,0.0,VALID,25.019,VALID,52.0,VALID,0.425,
2011-08-11, 01:31:05,VALID,1009.231,VALID,0.0,VALID,104.0,VALID,0.0,VALID,25.039,VALID,67.0,VALID,0.697,
2011-08-11, 01:32:05,VALID,1009.203,VALID,0.0,VALID,104.0,VALID,0.0,VALID,25.058,VALID,76.0,VALID,0.458,
2011-08-11, 01:33:05,VALID,1009.239,VALID,0.0,VALID,104.0,VALID,0.0,VALID,25.06,VALID,68.0,VALID,0.408,
2011-08-11, 01:34:05,VALID,1009.251,VALID,0.0,VALID,104.0,VALID,0.106,VALID,25.056,VALID,90.0,VALID,0.672,
2011-08-11, 01:35:05,VALID,1009.209,VALID,0.0,VALID,104.0,VALID,0.0,VALID,25.078,VALID,96.0,VALID,0.819,
2011-08-11, 01:36:05,VALID,1009.187,VALID,0.0,VALID,104.0,VALID,0.0,VALID,25.078,VALID,106.0,VALID,0.75,
2011-08-11, 01:37:05,VALID,1009.199,VALID,0.0,VALID,104.0,VALID,0.106,VALID,25.076,VALID,116.0,VALID,0.726,
2011-08-11, 01:38:05,VALID,1009.185,VALID,0.0,VALID,104.0,VALID,0.106,VALID,25.056,VALID,100.0,VALID,0.666,
2011-08-11, 01:39:05,VALID,1009.189,VALID,0.0,VALID,104.0,VALID,0.106,VALID,25.056,VALID,101.0,VALID,0.587,
2011-08-11, 01:40:05,VALID,1009.167,VALID,0.0,VALID,104.0,VALID,0.106,VALID,25.056,VALID,100.0,VALID,0.494,
2011-08-11, 01:41:05,VALID,1009.151,VALID,0.0,VALID,104.0,VALID,0.106,VALID,25.056,VALID,100.0,VALID,0.445,
2011-08-11, 01:42:05,VALID,1009.145,VALID,0.0,VALID,104.0,VALID,0.106,VALID,25.054,VALID,109.0,VALID,0.544,
2011-08-11, 01:43:05,VALID,1009.147,VALID,0.0,VALID,104.0,VALID,0.106,VALID,25.076,VALID,108.0,VALID,0.365,
2011-08-11, 01:44:05,VALID,1009.147,VALID,0.0,VALID,104.0,VALID,0.106,VALID,25.076,VALID,109.0,VALID,0.273,
2011-08-11, 01:45:05,VALID,1009.129,VALID,0.0,VALID,104.0,VALID,0.106,VALID,25.076,VALID,109.0,VALID,0.0,
2011-08-11, 01:46:05,VALID,1009.124,VALID,0.0,VALID,104.0,VALID,0.212,VALID,25.093,VALID,108.0,VALID,0.0,
2011-08-11, 01:47:05,VALID,1009.13,VALID,0.0,VALID,104.0,VALID,0.106,VALID,25.134,VALID,41.0,VALID,0.354,
2011-08-11, 01:48:05,VALID,1009.155,VALID,0.0,VALID,104.0,VALID,0.106,VALID,25.134,VALID,19.0,VALID,0.267,
2011-08-11, 01:49:05,VALID,1009.147,VALID,0.0,VALID,104.0,VALID,0.0,VALID,25.156,VALID,19.0,VALID,0.391,
2011-08-11, 01:50:05,VALID,1009.191,VALID,0.0,VALID,104.0,VALID,0.0,VALID,25.156,VALID,19.0,VALID,0.378,
2011-08-11, 01:51:05,VALID,1009.251,VALID,0.0,VALID,104.0,VALID,0.0,VALID,25.175,VALID,19.0,VALID,0.482,
2011-08-11, 01:52:05,VALID,1009.257,VALID,0.0,VALID,104.0,VALID,0.0,VALID,25.195,VALID,19.0,VALID,0.344,
2011-08-11, 01:53:05,VALID,1009.265,VALID,0.0,VALID,104.0,VALID,0.0,VALID,25.175,VALID,19.0,VALID,0.468,
2011-08-11, 01:54:05,VALID,1009.266,VALID,0.0,VALID,104.0,VALID,0.0,VALID,25.175,VALID,18.0,VALID,0.376,
2011-08-11, 01:55:05,VALID,1009.305,VALID,0.0,VALID,104.0,VALID,0.0,VALID,25.236,VALID,19.0,VALID,0.162,
2011-08-11, 01:56:05,VALID,1009.309,VALID,0.0,VALID,104.0,VALID,0.0,VALID,25.214,VALID,19.0,VALID,0.355,
2011-08-11, 01:57:05,VALID,1009.306,VALID,0.0,VALID,104.0,VALID,0.0,VALID,25.214,VALID,19.0,VALID,0.347,
2011-08-11, 01:58:05,VALID,1009.288,VALID,0.0,VALID,104.0,VALID,0.0,VALID,25.195,VALID,17.0,VALID,0.376,
2011-08-11, 01:59:05,VALID,1009.266,VALID,0.0,VALID,104.0,VALID,0.0,VALID,25.214,VALID,17.0,VALID,0.398,
2011-08-11, 02:00:05,VALID,1009.239,VALID,0.0,VALID,104.0,VALID,0.0,VALID,25.234,VALID,17.0,VALID,0.239,
2011-08-11, 02:01:05,VALID,1009.258,VALID,0.0,VALID,104.0,VALID,0.0,VALID,25.234,VALID,346.0,VALID,0.607,
2011-08-11, 02:02:05,VALID,1009.208,VALID,0.0,VALID,104.0,VALID,0.0,VALID,25.234,VALID,336.0,VALID,0.402,
2011-08-11, 02:03:05,VALID,1009.195,VALID,0.0,VALID,104.0,VALID,0.0,VALID,25.234,VALID,326.0,VALID,0.71,
2011-08-11, 02:04:05,VALID,1009.162,VALID,0.0,VALID,104.0,VALID,0.0,VALID,25.234,VALID,326.0,VALID,0.806,
2011-08-11, 02:05:05,VALID,1009.146,VALID,0.0,VALID,104.0,VALID,0.0,VALID,25.275,VALID,319.0,VALID,0.813,
2011-08-11, 02:06:05,VALID,1009.129,VALID,0.0,VALID,104.0,VALID,0.0,VALID,25.234,VALID,326.0,VALID,0.657,
2011-08-11, 02:07:05,VALID,1009.092,VALID,0.0,VALID,104.0,VALID,0.0,VALID,25.273,VALID,318.0,VALID,0.65,
2011-08-11, 02:08:05,VALID,1009.104,VALID,0.0,VALID,104.0,VALID,0.0,VALID,25.253,VALID,344.0,VALID,0.413,
2011-08-11, 02:09:05,VALID,1009.101,VALID,0.0,VALID,104.0,VALID,0.0,VALID,25.273,VALID,344.0,VALID,0.331,
2011-08-11, 02:10:05,VALID,1009.078,VALID,0.0,VALID,104.0,VALID,0.0,VALID,25.273,VALID,312.0,VALID,0.537,
2011-08-11, 02:11:05,VALID,1009.075,VALID,0.0,VALID,104.0,VALID,0.0,VALID,25.292,VALID,312.0,VALID,0.329,
2011-08-11, 02:12:05,VALID,1009.053,VALID,0.0,VALID,104.0,VALID,0.0,VALID,25.292,VALID,322.0,VALID,0.768,
2011-08-11, 02:13:05,VALID,1009.013,VALID,0.0,VALID,104.0,VALID,0.0,VALID,25.273,VALID,333.0,VALID,0.634,
2011-08-11, 02:14:05,VALID,1009.002,VALID,0.0,VALID,104.0,VALID,0.0,VALID,25.273,VALID,323.0,VALID,0.486,
2011-08-11, 02:15:05,VALID,1009.013,VALID,0.0,VALID,104.0,VALID,0.0,VALID,25.273,VALID,323.0,VALID,0.219,
2011-08-11, 02:16:05,VALID,1008.985,VALID,0.0,VALID,104.0,VALID,0.0,VALID,25.273,VALID,201.0,VALID,0.748,
2011-08-11, 02:17:05,VALID,1008.993,VALID,0.0,VALID,104.0,VALID,0.0,VALID,25.273,VALID,202.0,VALID,0.533,
2011-08-11, 02:18:05,VALID,1008.981,VALID,0.0,VALID,104.0,VALID,0.0,VALID,25.273,VALID,178.0,VALID,0.549,
2011-08-11, 02:19:05,VALID,1008.964,VALID,0.0,VALID,104.0,VALID,0.0,VALID,25.232,VALID,173.0,VALID,0.203,
2011-08-11, 02:20:05,VALID,1008.946,VALID,0.0,VALID,104.0,VALID,0.0,VALID,25.253,VALID,173.0,VALID,0.0,
2011-08-11, 02:21:05,VALID,1008.954,VALID,0.0,VALID,104.0,VALID,0.0,VALID,25.234,VALID,118.0,VALID,0.558,
2011-08-11, 02:22:05,VALID,1008.947,VALID,0.0,VALID,104.0,VALID,0.0,VALID,25.234,VALID,45.0,VALID,0.999,
2011-08-11, 02:23:05,VALID,1008.952,VALID,0.5,VALID,104.0,VALID,0.0,VALID,25.214,VALID,45.0,VALID,0.813,
2011-08-11, 02:24:05,VALID,1008.98,VALID,0.0,VALID,104.0,VALID,0.0,VALID,25.195,VALID,39.0,VALID,0.844,
2011-08-11, 02:25:05,VALID,1008.986,VALID,0.0,VALID,104.0,VALID,0.0,VALID,25.175,VALID,39.0,VALID,0.613,
2011-08-11, 02:26:05,VALID,1009.008,VALID,1.0,VALID,104.0,VALID,0.0,VALID,25.175,VALID,37.0,VALID,0.507,
2011-08-11, 02:27:05,VALID,1009.001,VALID,0.0,VALID,104.0,VALID,0.0,VALID,25.115,VALID,11.0,VALID,0.564,
2011-08-11, 02:28:05,VALID,1009.001,VALID,0.5,VALID,104.0,VALID,0.0,VALID,25.117,VALID,11.0,VALID,0.598,
2011-08-11, 02:29:05,VALID,1008.993,VALID,1.0,VALID,104.0,VALID,0.106,VALID,25.097,VALID,360.0,VALID,0.828,
2011-08-11, 02:30:05,VALID,1008.98,VALID,0.0,VALID,104.0,VALID,0.0,VALID,25.058,VALID,13.0,VALID,0.762,
2011-08-11, 02:31:05,VALID,1008.955,VALID,0.0,VALID,104.0,VALID,0.106,VALID,25.039,VALID,360.0,VALID,0.411,
2011-08-11, 02:32:05,VALID,1008.957,VALID,0.0,VALID,104.0,VALID,0.0,VALID,25.039,VALID,15.0,VALID,0.559,
2011-08-11, 02:33:05,VALID,1008.966,VALID,0.5,VALID,104.0,VALID,0.0,VALID,25.019,VALID,16.0,VALID,0.384,
2011-08-11, 02:34:05,VALID,1008.961,VALID,0.0,VALID,104.0,VALID,0.0,VALID,25.0,VALID,342.0,VALID,0.439,
2011-08-11, 02:35:05,VALID,1009.002,VALID,0.0,VALID,104.0,VALID,0.0,VALID,25.019,VALID,343.0,VALID,0.279,
2011-08-11, 02:36:05,VALID,1009.014,VALID,0.0,VALID,104.0,VALID,0.0,VALID,24.978,VALID,349.0,VALID,0.91,
2011-08-11, 02:37:05,VALID,1009.033,VALID,0.0,VALID,104.0,VALID,0.0,VALID,25.0,VALID,340.0,VALID,0.598,
2011-08-11, 02:38:05,VALID,1009.055,VALID,0.0,VALID,104.0,VALID,0.0,VALID,24.978,VALID,341.0,VALID,0.267,
2011-08-11, 02:39:05,VALID,1009.087,VALID,0.0,VALID,104.0,VALID,0.0,VALID,24.959,VALID,342.0,VALID,0.441,
2011-08-11, 02:40:05,VALID,1009.061,VALID,0.0,VALID,104.0,VALID,0.0,VALID,25.0,VALID,343.0,VALID,0.261,
2011-08-11, 02:41:05,VALID,1009.053,VALID,0.0,VALID,104.0,VALID,0.106,VALID,24.998,VALID,343.0,VALID,0.329,
2011-08-11, 02:42:05,VALID,1009.047,VALID,0.0,VALID,104.0,VALID,0.0,VALID,25.039,VALID,343.0,VALID,0.098,
2011-08-11, 02:43:05,VALID,1009.018,VALID,0.0,VALID,104.0,VALID,0.0,VALID,25.019,VALID,341.0,VALID,0.481,
2011-08-11, 02:44:05,VALID,1008.998,VALID,0.0,VALID,104.0,VALID,0.0,VALID,25.019,VALID,341.0,VALID,0.445,
2011-08-11, 02:45:05,VALID,1008.977,VALID,0.0,VALID,104.0,VALID,0.0,VALID,25.0,VALID,341.0,VALID,0.339,
2011-08-11, 02:46:05,VALID,1009.01,VALID,0.0,VALID,104.0,VALID,0.0,VALID,24.978,VALID,341.0,VALID,0.421,
2011-08-11, 02:47:05,VALID,1009.014,VALID,0.0,VALID,104.0,VALID,0.0,VALID,25.019,VALID,341.0,VALID,0.355,
2011-08-11, 02:48:05,VALID,1009.025,VALID,0.0,VALID,104.0,VALID,0.0,VALID,25.019,VALID,341.0,VALID,0.595,
2011-08-11, 02:49:05,VALID,1009.01,VALID,0.0,VALID,104.0,VALID,0.0,VALID,25.0,VALID,343.0,VALID,0.291,
2011-08-11, 02:50:05,VALID,1009.019,VALID,0.0,VALID,104.0,VALID,0.0,VALID,25.0,VALID,19.0,VALID,0.707,
2011-08-11, 02:51:05,VALID,1009.03,VALID,0.0,VALID,104.0,VALID,0.0,VALID,24.978,VALID,23.0,VALID,0.595,
2011-08-11, 02:52:05,VALID,1009.024,VALID,0.0,VALID,104.0,VALID,0.0,VALID,25.0,VALID,24.0,VALID,0.588,
2011-08-11, 02:53:05,VALID,1009.021,VALID,0.0,VALID,104.0,VALID,0.0,VALID,25.0,VALID,24.0,VALID,0.804,
2011-08-11, 02:54:05,VALID,1009.034,VALID,0.5,VALID,104.0,VALID,0.0,VALID,24.98,VALID,24.0,VALID,0.407,
2011-08-11, 02:55:05,VALID,1009.034,VALID,0.0,VALID,104.0,VALID,0.0,VALID,24.98,VALID,24.0,VALID,0.306,
2011-08-11, 02:56:05,VALID,1009.037,VALID,0.0,VALID,104.0,VALID,0.106,VALID,24.98,VALID,343.0,VALID,0.771,
2011-08-11, 02:57:05,VALID,1009.017,VALID,0.0,VALID,104.0,VALID,0.0,VALID,24.961,VALID,347.0,VALID,0.371,
2011-08-11, 02:58:05,VALID,1009.005,VALID,0.0,VALID,104.0,VALID,0.0,VALID,24.941,VALID,351.0,VALID,0.763,
2011-08-11, 02:59:05,VALID,1008.999,VALID,0.0,VALID,104.0,VALID,0.0,VALID,24.941,VALID,7.0,VALID,0.79,
2011-08-11, 03:00:05,VALID,1009.002,VALID,0.0,VALID,104.0,VALID,0.0,VALID,24.902,VALID,341.0,VALID,0.755,
2011-08-11, 03:01:05,VALID,1009.048,VALID,0.0,VALID,104.0,VALID,0.0,VALID,24.902,VALID,332.0,VALID,0.489,
2011-08-11, 03:02:05,VALID,1009.036,VALID,0.0,VALID,104.0,VALID,0.0,VALID,24.902,VALID,280.0,VALID,0.168,
2011-08-11, 03:03:05,VALID,1009.043,VALID,0.0,VALID,104.0,VALID,0.0,VALID,24.902,VALID,310.0,VALID,0.513,
2011-08-11, 03:04:05,VALID,1009.061,VALID,0.0,VALID,104.0,VALID,0.106,VALID,24.881,VALID,301.0,VALID,0.525,
2011-08-11, 03:05:05,VALID,1009.046,VALID,0.0,VALID,104.0,VALID,0.0,VALID,24.863,VALID,323.0,VALID,0.819,
2011-08-11, 03:06:05,VALID,1009.034,VALID,0.0,VALID,104.0,VALID,0.0,VALID,24.824,VALID,327.0,VALID,0.841,
2011-08-11, 03:07:05,VALID,1009.003,VALID,0.0,VALID,104.0,VALID,0.0,VALID,24.785,VALID,336.0,VALID,1.055,
2011-08-11, 03:08:05,VALID,1008.901,VALID,0.0,VALID,104.0,VALID,0.0,VALID,24.746,VALID,331.0,VALID,0.533,
2011-08-11, 03:09:05,VALID,1008.869,VALID,0.0,VALID,104.0,VALID,0.0,VALID,24.746,VALID,298.0,VALID,0.926,
2011-08-11, 03:10:05,VALID,1008.807,VALID,0.0,VALID,104.0,VALID,0.0,VALID,24.727,VALID,296.0,VALID,0.37,
2011-08-11, 03:11:05,VALID,1008.783,VALID,0.0,VALID,104.0,VALID,0.0,VALID,24.707,VALID,325.0,VALID,0.939,
2011-08-11, 03:12:05,VALID,1008.797,VALID,0.0,VALID,104.0,VALID,0.0,VALID,24.688,VALID,280.0,VALID,0.666,
2011-08-11, 03:13:05,VALID,1008.842,VALID,0.0,VALID,104.0,VALID,0.0,VALID,24.688,VALID,320.0,VALID,0.491,
2011-08-11, 03:14:05,VALID,1008.92,VALID,0.0,VALID,104.0,VALID,0.0,VALID,24.688,VALID,6.0,VALID,0.909,
2011-08-11, 03:15:05,VALID,1008.985,VALID,0.0,VALID,104.0,VALID,0.0,VALID,24.668,VALID,13.0,VALID,1.38,
2011-08-11, 03:16:05,VALID,1009.05,VALID,0.0,VALID,104.0,VALID,0.0,VALID,24.629,VALID,33.0,VALID,1.385,
2011-08-11, 03:17:05,VALID,1009.105,VALID,0.0,VALID,104.0,VALID,0.0,VALID,24.59,VALID,24.0,VALID,1.561,
2011-08-11, 03:18:05,VALID,1009.186,VALID,0.0,VALID,104.0,VALID,0.0,VALID,24.59,VALID,8.0,VALID,1.204,
2011-08-11, 03:19:05,VALID,1009.147,VALID,0.0,VALID,104.0,VALID,0.0,VALID,24.553,VALID,26.0,VALID,2.261,
2011-08-11, 03:20:05,VALID,1009.168,VALID,0.0,VALID,104.0,VALID,0.0,VALID,24.493,VALID,323.0,VALID,0.357,
2011-08-11, 03:21:05,VALID,1009.157,VALID,0.0,VALID,104.0,VALID,0.0,VALID,24.495,VALID,256.0,VALID,0.378,
2011-08-11, 03:22:05,VALID,1009.17,VALID,0.0,VALID,104.0,VALID,0.0,VALID,24.435,VALID,9.0,VALID,1.321,
2011-08-11, 03:23:05,VALID,1009.199,VALID,0.0,VALID,104.0,VALID,0.0,VALID,24.435,VALID,223.0,VALID,0.367,
2011-08-11, 03:24:05,VALID,1009.24,VALID,0.0,VALID,104.0,VALID,0.0,VALID,24.396,VALID,181.0,VALID,0.095,
2011-08-11, 03:25:05,VALID,1009.279,VALID,0.0,VALID,104.0,VALID,0.0,VALID,24.376,VALID,184.0,VALID,0.121,
2011-08-11, 03:26:05,VALID,1009.291,VALID,0.0,VALID,104.0,VALID,0.0,VALID,24.357,VALID,189.0,VALID,0.277,
2011-08-11, 03:27:05,VALID,1009.306,VALID,0.0,VALID,104.0,VALID,0.0,VALID,24.358,VALID,189.0,VALID,0.164,
2011-08-11, 03:28:05,VALID,1009.287,VALID,0.0,VALID,104.0,VALID,0.0,VALID,24.318,VALID,92.0,VALID,0.561,
2011-08-11, 03:29:05,VALID,1009.258,VALID,0.0,VALID,104.0,VALID,0.0,VALID,24.259,VALID,282.0,VALID,1.8,
2011-08-11, 03:30:05,VALID,1009.243,VALID,0.0,VALID,104.0,VALID,0.0,VALID,24.241,VALID,17.0,VALID,1.028,
2011-08-11, 03:31:05,VALID,1009.219,VALID,0.0,VALID,104.0,VALID,0.0,VALID,24.203,VALID,328.0,VALID,1.395,
2011-08-11, 03:32:05,VALID,1009.228,VALID,0.0,VALID,104.0,VALID,0.0,VALID,24.164,VALID,324.0,VALID,0.549,
2011-08-11, 03:33:05,VALID,1009.239,VALID,0.0,VALID,104.0,VALID,0.0,VALID,24.084,VALID,324.0,VALID,0.846,
2011-08-11, 03:34:05,VALID,1009.229,VALID,0.0,VALID,104.0,VALID,0.0,VALID,23.986,VALID,324.0,VALID,1.791,
2011-08-11, 03:35:05,VALID,1009.246,VALID,0.0,VALID,104.0,VALID,0.0,VALID,23.969,VALID,337.0,VALID,1.315,
2011-08-11, 03:36:05,VALID,1009.255,VALID,0.0,VALID,104.0,VALID,0.0,VALID,23.889,VALID,20.0,VALID,0.871,
2011-08-11, 03:37:05,VALID,1009.248,VALID,0.0,VALID,104.0,VALID,0.0,VALID,23.869,VALID,20.0,VALID,0.957,
2011-08-11, 03:38:05,VALID,1009.279,VALID,0.0,VALID,104.0,VALID,0.0,VALID,23.832,VALID,33.0,VALID,0.629,
2011-08-11, 03:39:05,VALID,1009.314,VALID,0.0,VALID,104.0,VALID,0.0,VALID,23.793,VALID,24.0,VALID,0.799,
2011-08-11, 03:40:05,VALID,1009.379,VALID,0.0,VALID,104.0,VALID,0.0,VALID,23.752,VALID,356.0,VALID,0.577,
2011-08-11, 03:41:05,VALID,1009.381,VALID,0.0,VALID,104.0,VALID,0.0,VALID,23.713,VALID,350.0,VALID,0.594,
2011-08-11, 03:42:05,VALID,1009.392,VALID,0.5,VALID,104.0,VALID,0.0,VALID,23.694,VALID,334.0,VALID,0.325,